Location: Wiesbaden
(50.0830°N, 8.2500°E)
Time: 22:49:53
(UTC+01:00)

ISS - Visible Passes

Search period start: 16 December 2018 00:00
Search period end: 26 December 2018 00:00
Orbit: 401 x 408 km, 51.6° (Epoch: 17 December)

Date Brightness Start Highest point End Pass type
(mag) Time Alt. Az. Time Alt. Az. Time Alt. Az.
16 Dec -0.2 17:06:55 10° WSW 17:08:12 12° SW 17:09:30 10° SSW visible
24 Dec -0.8 06:56:01 10° S 06:58:13 17° SE 07:00:27 10° E visible
25 Dec -0.4 06:05:36 10° SE 06:06:13 10° SE 06:06:49 10° SE visible
25 Dec -2.7 07:38:53 10° SW 07:42:03 47° SSE 07:45:14 10° ENE visible
